Home   Weather   Gera   Past weeks
Flag for Germany

Past Weather in Gera, Thuringia, Germany — Yesterday and Last 2 Weeks

Now
54 °F

Fog.


Feels Like: 53 °F
Forecast: 69 / 47 °F
Wind: 3 mph from Northwest

Location: Altenburg Nobitz

Current Time: Oct 23, 2019 at 3:46:06 pm

Latest Report: Oct 23, 2019 at 3:20 pm


Visibility: 0 mi

Pressure: 30.04 "Hg

Humidity: 94%

Dew Point: 52 °F

Location of GeraLocation

Past Weather in Gera — Graph

°F

Gera Temperature Yesterday

Maximum temperature yesterday: 64 °F (at 2:20 pm)
Minimum temperature yesterday: 45 °F (at 7:50 am)
Average temperature yesterday: 53 °F

High & Low Weather Summary for the Past Weeks

 TemperatureHumidityPressure
High77 °F (Oct 14, 2:50 pm)100% (Oct 14, 10:50 pm)30.27 "Hg (Oct 14, 10:50 pm)
Low45 °F (Oct 22, 7:50 am)47% (Oct 12, 2:50 pm)29.65 "Hg (Oct 15, 4:20 pm)
Average57 °F79%29.93 "Hg
* Reported Oct 8 2:20 pm — Oct 23 2:20 pm, Gera. Weather by CustomWeather, © 2019

Note: Actual official high and low records may vary slightly from our data, if they occured in-between our weather recording intervals... More about our weather records

Advertising

Gera Weather History for the Previous 24 Hours

Scroll right to see more
 ConditionsComfort  
Time TempWeatherWind HumidityBarometerVisibility
2:20 pm
Wed, Oct 23
52 °FFog.5 mph100%30.07 "Hg0 mi
1:50 pm52 °FFog.5 mph100%30.07 "Hg0 mi
1:20 pm52 °FFog.3 mph100%30.07 "Hg0 mi
12:50 pm52 °FFog.2 mph94%30.09 "Hg0 mi
12:20 pm50 °FFog.2 mph100%30.09 "Hg0 mi
11:50 am50 °FFog.1 mph100%30.09 "Hg0 mi
11:20 am50 °FFog.1 mph100%30.12 "Hg0 mi
10:50 am50 °FFog.2 mph100%30.12 "Hg0 mi
10:20 am50 °FFog.1 mph94%30.12 "Hg0 mi
9:50 am50 °FFog.No wind94%30.12 "Hg0 mi
9:20 am48 °FFog.1 mph100%30.12 "Hg0 mi
8:50 am48 °FFog.1 mph100%30.12 "Hg0 mi
8:20 am48 °FFog.3 mph100%30.15 "Hg0 mi
7:50 am48 °FMore clouds than sun.2 mph100%30.12 "Hg1 mi
7:20 am48 °FDense fog.3 mph100%30.12 "Hg1 mi
6:50 am48 °FDense fog.3 mph100%30.15 "Hg0 mi
6:20 am48 °FDense fog.5 mph100%30.15 "Hg0 mi
5:50 am48 °FDense fog.3 mph100%30.15 "Hg0 mi
5:20 am48 °FDense fog.3 mph100%30.15 "Hg0 mi
4:50 am48 °FDense fog.No wind100%30.15 "Hg0 mi
4:20 am48 °FDense fog.1 mph100%30.18 "Hg1 mi
3:50 am48 °FDense fog.No wind94%30.18 "Hg1 mi
3:20 am46 °FDense fog.2 mph100%30.21 "Hg0 mi
2:50 am48 °FDense fog.1 mph100%30.21 "Hg0 mi
2:20 am48 °FDense fog.1 mph94%30.21 "Hg0 mi
1:50 am48 °FDense fog.2 mph94%30.24 "Hg0 mi
1:20 am46 °FPartly cloudy.2 mph100%30.24 "Hg0 mi
12:50 am46 °FDense fog.1 mph100%30.24 "Hg1 mi
12:20 am46 °FPassing clouds.No wind100%30.24 "Hg1 mi
11:50 pm
Tue, Oct 22
46 °FPassing clouds.No wind100%30.24 "Hg1 mi
11:20 pm48 °FClear.No wind94%30.24 "Hg1 mi
10:50 pm48 °FClear.No wind94%30.24 "Hg1 mi
10:20 pm48 °FClear.2 mph94%30.24 "HgN/A
9:50 pm48 °FClear.2 mph94%30.24 "HgN/A
9:20 pm50 °FClear.2 mph94%30.21 "Hg5 mi
8:50 pm50 °FClear.1 mph94%30.21 "HgN/A
8:20 pm52 °FClear.3 mph94%30.24 "HgN/A
7:50 pm52 °FClear.No wind94%30.24 "Hg10 mi
7:20 pm54 °FClear.2 mph94%30.21 "Hg10 mi
6:50 pm55 °FClear.2 mph88%30.21 "Hg10 mi
6:20 pm59 °FClear.No wind82%30.21 "Hg10 mi
5:50 pm61 °FSunny.1 mph77%30.21 "Hg10 mi
5:20 pm61 °FSunny.2 mph77%30.21 "Hg10 mi
4:50 pm63 °FSunny.1 mph68%30.21 "Hg10 mi
4:20 pm63 °FSunny.2 mph64%30.21 "Hg10 mi
3:50 pm64 °FSunny.2 mph64%30.21 "Hg10 mi
3:20 pm64 °FSunny.2 mph60%30.24 "Hg10 mi
Weather by CustomWeather, © 2019

See weather overview